• In Deutschland
  • Länderverzeichnis
  • Für 7 Tage
  • Wassertemperatur
  • Satellitenkarten
  • Wetterkarte
  • Widgets
  • user-avatar
    Anmelden

    Stündliche Wetter Algier

    Heute, 26 September, Dienstag

    Zeit Temperatur Niederschläge Wind Luftdruck Luftfeuchtigkeit
    00:00 +24°C° 0 mm 1 m/S 750 mmHg 52%
    01:00 +24°C° 0 mm 1 m/S 750 mmHg 51%
    02:00 +24°C° 0 mm 1 m/S 750 mmHg 49%
    03:00 +23°C° 0 mm 1 m/S 750 mmHg 48%
    04:00 +23°C° 0 mm 1 m/S 750 mmHg 49%
    05:00 +23°C° 0 mm 1 m/S 750 mmHg 50%
    06:00 +21°C° 0 mm 0 m/S 750 mmHg 51%
    07:00 +23°C° 0 mm 0 m/S 750 mmHg 44%
    08:00 +25°C° 0 mm 0 m/S 750 mmHg 37%
    09:00 +27°C° 0 mm 0 m/S 750 mmHg 30%
    10:00 +30°C° 0 mm 1 m/S 750 mmHg 28%
    11:00 +31°C° 0 mm 2 m/S 750 mmHg 26%
    12:00 +32°C° 0 mm 2 m/S 750 mmHg 25%
    13:00 +31°C° 0 mm 3 m/S 750 mmHg 28%
    14:00 +31°C° 0 mm 3 m/S 750 mmHg 30%
    15:00 +32°C° 0 mm 4 m/S 749 mmHg 33%
    16:00 +29°C° 0 mm 3 m/S 749 mmHg 39%
    17:00 +28°C° 0 mm 3 m/S 750 mmHg 45%
    18:00 +26°C° 0 mm 3 m/S 750 mmHg 51%
    19:00 +26°C° 0 mm 3 m/S 750 mmHg 54%
    20:00 +25°C° 0 mm 3 m/S 751 mmHg 56%
    21:00 +24°C° 0 mm 3 m/S 751 mmHg 59%
    22:00 +24°C° 0 mm 3 m/S 751 mmHg 60%
    23:00 +24°C° 0 mm 3 m/S 751 mmHg 61%

    Morgen, 27 September, Mittwoch

    Zeit Temperatur Niederschläge Wind Luftdruck Luftfeuchtigkeit
    00:00 +22°C° 0 mm 3 m/S 751 mmHg 62%
    01:00 +22°C° 0 mm 3 m/S 751 mmHg 63%
    02:00 +21°C° 0 mm 3 m/S 751 mmHg 64%
    03:00 +21°C° 0 mm 3 m/S 751 mmHg 66%
    04:00 +21°C° 0,1 mm 3 m/S 751 mmHg 69%
    05:00 +21°C° 0,1 mm 3 m/S 751 mmHg 72%
    06:00 +20°C° 0,1 mm 3 m/S 751 mmHg 75%
    07:00 +22°C° 0,1 mm 3 m/S 752 mmHg 69%
    08:00 +24°C° 0,1 mm 3 m/S 752 mmHg 63%
    09:00 +26°C° 0,1 mm 4 m/S 752 mmHg 58%
    10:00 +27°C° 0 mm 4 m/S 752 mmHg 54%
    11:00 +28°C° 0 mm 4 m/S 752 mmHg 50%
    12:00 +29°C° 0 mm 5 m/S 752 mmHg 47%
    13:00 +29°C° 0 mm 5 m/S 752 mmHg 49%
    14:00 +29°C° 0 mm 5 m/S 752 mmHg 51%
    15:00 +28°C° 0 mm 5 m/S 752 mmHg 54%
    16:00 +27°C° 0 mm 5 m/S 752 mmHg 60%
    17:00 +26°C° 0 mm 5 m/S 752 mmHg 66%
    18:00 +25°C° 0 mm 4 m/S 752 mmHg 72%
    19:00 +23°C° 0 mm 4 m/S 753 mmHg 75%
    20:00 +22°C° 0 mm 4 m/S 753 mmHg 78%
    21:00 +22°C° 0 mm 3 m/S 754 mmHg 81%
    22:00 +21°C° 0 mm 3 m/S 754 mmHg 82%
    23:00 +21°C° 0 mm 3 m/S 753 mmHg 84%

    übermorgen, 28 September, Donnerstag

    Zeit Temperatur Niederschläge Wind Luftdruck Luftfeuchtigkeit
    00:00 +21°C° 0 mm 3 m/S 753 mmHg 85%
    01:00 +21°C° 0 mm 3 m/S 753 mmHg 85%
    02:00 +20°C° 0 mm 3 m/S 753 mmHg 86%
    03:00 +20°C° 0 mm 3 m/S 753 mmHg 86%
    04:00 +20°C° 0 mm 3 m/S 753 mmHg 85%
    05:00 +20°C° 0 mm 3 m/S 753 mmHg 84%
    06:00 +20°C° 0 mm 3 m/S 753 mmHg 83%
    07:00 +21°C° 0 mm 3 m/S 754 mmHg 73%
    08:00 +24°C° 0 mm 3 m/S 754 mmHg 62%
    09:00 +26°C° 0 mm 4 m/S 754 mmHg 51%
    10:00 +27°C° 0 mm 4 m/S 754 mmHg 47%
    11:00 +28°C° 0 mm 4 m/S 754 mmHg 42%
    12:00 +29°C° 0 mm 5 m/S 754 mmHg 37%
    13:00 +28°C° 0 mm 5 m/S 753 mmHg 41%
    14:00 +28°C° 0 mm 5 m/S 753 mmHg 45%
    15:00 +27°C° 0 mm 5 m/S 753 mmHg 49%
    16:00 +27°C° 0 mm 5 m/S 753 mmHg 54%
    17:00 +26°C° 0 mm 4 m/S 753 mmHg 59%
    18:00 +25°C° 0 mm 4 m/S 753 mmHg 65%
    19:00 +25°C° 0 mm 4 m/S 753 mmHg 67%
    20:00 +23°C° 0 mm 4 m/S 753 mmHg 69%
    21:00 +24°C° 0 mm 3 m/S 754 mmHg 71%
    22:00 +24°C° 0 mm 3 m/S 754 mmHg 71%
    23:00 +24°C° 0 mm 3 m/S 753 mmHg 72%

    29 September, Freitag

    Zeit Temperatur Niederschläge Wind Luftdruck Luftfeuchtigkeit
    00:00 +24°C° 0 mm 3 m/S 753 mmHg 72%
    01:00 +22°C° 0 mm 3 m/S 753 mmHg 74%
    02:00 +22°C° 0 mm 3 m/S 753 mmHg 75%
    03:00 +22°C° 0 mm 3 m/S 752 mmHg 77%
    04:00 +22°C° 0 mm 3 m/S 752 mmHg 78%
    05:00 +21°C° 0 mm 3 m/S 752 mmHg 79%
    06:00 +21°C° 0 mm 3 m/S 752 mmHg 80%
    07:00 +22°C° 0 mm 3 m/S 753 mmHg 73%
    08:00 +25°C° 0 mm 4 m/S 753 mmHg 66%
    09:00 +26°C° 0 mm 4 m/S 753 mmHg 60%
    10:00 +27°C° 0 mm 4 m/S 753 mmHg 56%
    11:00 +28°C° 0 mm 5 m/S 753 mmHg 52%
    12:00 +29°C° 0 mm 5 m/S 752 mmHg 48%
    13:00 +29°C° 0 mm 5 m/S 752 mmHg 49%
    14:00 +28°C° 0 mm 6 m/S 752 mmHg 50%
    15:00 +28°C° 0 mm 6 m/S 751 mmHg 52%
    16:00 +27°C° 0 mm 5 m/S 751 mmHg 59%
    17:00 +26°C° 0 mm 5 m/S 752 mmHg 66%
    18:00 +23°C° 0 mm 5 m/S 752 mmHg 73%
    19:00 +23°C° 0 mm 4 m/S 752 mmHg 77%
    20:00 +22°C° 0 mm 4 m/S 752 mmHg 80%
    21:00 +21°C° 0 mm 4 m/S 752 mmHg 84%
    22:00 +21°C° 0 mm 3 m/S 752 mmHg 85%
    23:00 +21°C° 0 mm 3 m/S 752 mmHg 86%

    30 September, Samstag

    Zeit Temperatur Niederschläge Wind Luftdruck Luftfeuchtigkeit
    00:00 +20°C° 0 mm 3 m/S 752 mmHg 88%
    01:00 +20°C° 0 mm 2 m/S 752 mmHg 89%
    02:00 +19°C° 0 mm 2 m/S 752 mmHg 90%
    03:00 +19°C° 0 mm 2 m/S 751 mmHg 91%
    04:00 +19°C° 0 mm 2 m/S 751 mmHg 91%
    05:00 +19°C° 0 mm 2 m/S 752 mmHg 91%
    06:00 +18°C° 0 mm 2 m/S 752 mmHg 91%
    07:00 +20°C° 0 mm 2 m/S 752 mmHg 80%
    08:00 +23°C° 0 mm 2 m/S 752 mmHg 68%
    09:00 +25°C° 0 mm 2 m/S 752 mmHg 57%
    10:00 +26°C° 0 mm 2 m/S 752 mmHg 51%
    11:00 +27°C° 0 mm 3 m/S 751 mmHg 45%
    12:00 +28°C° 0 mm 3 m/S 751 mmHg 39%
    13:00 +28°C° 0 mm 4 m/S 751 mmHg 42%
    14:00 +28°C° 0 mm 4 m/S 750 mmHg 44%
    15:00 +28°C° 0 mm 4 m/S 750 mmHg 47%
    16:00 +27°C° 0 mm 4 m/S 750 mmHg 54%
    17:00 +25°C° 0 mm 4 m/S 750 mmHg 62%
    18:00 +23°C° 0 mm 4 m/S 750 mmHg 69%
    19:00 +22°C° 0 mm 3 m/S 750 mmHg 72%
    20:00 +22°C° 0 mm 3 m/S 750 mmHg 75%
    21:00 +21°C° 0 mm 3 m/S 751 mmHg 78%
    22:00 +21°C° 0 mm 3 m/S 750 mmHg 78%
    23:00 +21°C° 0 mm 3 m/S 750 mmHg 79%

    1 Oktober, Sonntag

    Zeit Temperatur Niederschläge Wind Luftdruck Luftfeuchtigkeit
    00:00 +21°C° 0 mm 3 m/S 750 mmHg 80%
    01:00 +21°C° 0 mm 3 m/S 750 mmHg 80%
    02:00 +20°C° 0 mm 3 m/S 749 mmHg 81%
    03:00 +20°C° 0 mm 3 m/S 749 mmHg 81%
    04:00 +20°C° 0 mm 3 m/S 749 mmHg 82%
    05:00 +20°C° 0 mm 3 m/S 750 mmHg 82%
    06:00 +20°C° 0 mm 3 m/S 750 mmHg 82%
    07:00 +22°C° 0 mm 3 m/S 750 mmHg 73%
    08:00 +25°C° 0 mm 3 m/S 749 mmHg 63%
    09:00 +26°C° 0 mm 3 m/S 749 mmHg 54%
    10:00 +28°C° 0 mm 4 m/S 749 mmHg 50%
    11:00 +29°C° 0 mm 4 m/S 749 mmHg 47%
    12:00 +30°C° 0 mm 5 m/S 749 mmHg 43%
    13:00 +29°C° 0 mm 5 m/S 748 mmHg 47%
    14:00 +28°C° 0 mm 6 m/S 748 mmHg 50%
    15:00 +28°C° 0 mm 6 m/S 748 mmHg 54%
    16:00 +27°C° 0,1 mm 6 m/S 748 mmHg 59%
    17:00 +26°C° 0,1 mm 5 m/S 748 mmHg 64%
    18:00 +25°C° 0,1 mm 5 m/S 748 mmHg 70%
    19:00 +23°C° 0,2 mm 5 m/S 748 mmHg 71%
    20:00 +23°C° 0,2 mm 5 m/S 749 mmHg 73%
    21:00 +23°C° 0,2 mm 5 m/S 749 mmHg 75%
    22:00 +22°C° 0 mm 4 m/S 749 mmHg 76%
    23:00 +22°C° 0 mm 4 m/S 749 mmHg 76%
    Mehr zeigen